TimeCST,TemperatureF,Dew PointF,Humidity,Sea Level PressureIn,VisibilityMPH,Wind Direction,Wind SpeedMPH,Gust SpeedMPH,PrecipitationIn,Events,Conditions,WindDirDegrees,DateUTC
12:15 AM,48.2,33.8,58,29.74,10.0,SSW,6.9,-,N/A,,Clear,200,2012-12-16 06:15:00
12:55 AM,48.2,32.0,54,29.74,10.0,SSW,5.8,-,N/A,,Clear,210,2012-12-16 06:55:00
1:15 AM,48.2,32.0,54,29.73,10.0,SSW,5.8,-,N/A,,Clear,210,2012-12-16 07:15:00
1:35 AM,48.2,32.0,54,29.74,10.0,SSW,8.1,-,N/A,,Clear,210,2012-12-16 07:35:00
1:55 AM,48.2,32.0,54,29.73,10.0,SSW,8.1,-,N/A,,Clear,210,2012-12-16 07:55:00
2:16 AM,48.2,32.0,54,29.73,10.0,SSW,5.8,-,N/A,,Clear,210,2012-12-16 08:16:00
2:35 AM,48.2,32.0,54,29.73,10.0,SSW,4.6,-,N/A,,Clear,210,2012-12-16 08:35:00
2:55 AM,46.4,32.0,57,29.73,10.0,South,5.8,-,N/A,,Clear,190,2012-12-16 08:55:00
3:15 AM,46.4,32.0,57,29.73,10.0,South,5.8,-,N/A,,Clear,180,2012-12-16 09:15:00
3:35 AM,46.4,32.0,57,29.72,10.0,South,5.8,-,N/A,,Clear,190,2012-12-16 09:35:00
3:55 AM,46.4,32.0,57,29.72,10.0,South,8.1,-,N/A,,Clear,190,2012-12-16 09:55:00
4:15 AM,48.2,32.0,54,29.72,10.0,South,6.9,-,N/A,,Clear,190,2012-12-16 10:15:00
4:55 AM,48.2,30.2,50,29.71,10.0,South,6.9,-,N/A,,Clear,190,2012-12-16 10:55:00
5:15 AM,48.2,32.0,54,29.71,10.0,South,5.8,-,N/A,,Clear,190,2012-12-16 11:15:00
5:35 AM,48.2,32.0,54,29.72,10.0,South,4.6,-,N/A,,Clear,190,2012-12-16 11:35:00
6:15 AM,48.2,32.0,54,29.72,10.0,SSW,4.6,-,N/A,,Clear,200,2012-12-16 12:15:00
6:35 AM,48.2,32.0,54,29.73,10.0,South,5.8,-,N/A,,Clear,190,2012-12-16 12:35:00
7:15 AM,48.2,32.0,54,29.73,10.0,SSW,5.8,-,N/A,,Clear,200,2012-12-16 13:15:00
7:35 AM,46.4,30.2,53,29.72,10.0,Calm,Calm,-,N/A,,Clear,0,2012-12-16 13:35:00
7:55 AM,46.4,30.2,53,29.72,10.0,SW,5.8,-,N/A,,Clear,220,2012-12-16 13:55:00
8:16 AM,46.4,30.2,53,29.72,10.0,SSW,5.8,-,N/A,,Clear,210,2012-12-16 14:16:00
8:35 AM,46.4,32.0,57,29.72,10.0,South,4.6,-,N/A,,Clear,180,2012-12-16 14:35:00
8:55 AM,46.4,33.8,62,29.73,10.0,SSW,6.9,-,N/A,,Clear,210,2012-12-16 14:55:00
9:15 AM,48.2,33.8,58,29.74,10.0,SW,8.1,-,N/A,,Clear,220,2012-12-16 15:15:00
9:36 AM,51.8,33.8,50,29.74,10.0,SW,6.9,-,N/A,,Clear,220,2012-12-16 15:36:00
9:55 AM,51.8,33.8,50,29.74,10.0,SW,9.2,-,N/A,,Clear,220,2012-12-16 15:55:00
10:15 AM,53.6,35.6,51,29.74,10.0,SW,12.7,-,N/A,,Clear,230,2012-12-16 16:15:00
10:55 AM,55.4,35.6,47,29.72,10.0,SW,13.8,-,N/A,,Clear,230,2012-12-16 16:55:00
11:15 AM,57.2,35.6,44,29.71,10.0,SW,15.0,19.6,N/A,,Clear,230,2012-12-16 17:15:00
11:35 AM,57.2,35.6,44,29.68,10.0,WSW,10.4,-,N/A,,Clear,240,2012-12-16 17:35:00
11:56 AM,57.2,33.8,41,29.67,10.0,WSW,12.7,-,N/A,,Clear,240,2012-12-16 17:56:00
12:15 PM,57.2,33.8,41,29.65,10.0,WSW,9.2,-,N/A,,Clear,240,2012-12-16 18:15:00
12:35 PM,60.8,33.8,36,29.64,10.0,WSW,9.2,16.1,N/A,,Clear,240,2012-12-16 18:35:00
12:55 PM,60.8,33.8,36,29.63,10.0,WSW,11.5,-,N/A,,Clear,240,2012-12-16 18:55:00
1:15 PM,62.6,35.6,37,29.63,10.0,WSW,11.5,-,N/A,,Clear,250,2012-12-16 19:15:00
1:35 PM,62.6,35.6,37,29.62,10.0,WSW,9.2,-,N/A,,Clear,250,2012-12-16 19:35:00
1:55 PM,62.6,35.6,37,29.62,10.0,WSW,12.7,17.3,N/A,,Clear,240,2012-12-16 19:55:00
2:16 PM,62.6,35.6,37,29.62,10.0,WSW,9.2,-,N/A,,Clear,250,2012-12-16 20:16:00
2:35 PM,64.4,35.6,34,29.62,10.0,West,8.1,-,N/A,,Clear,260,2012-12-16 20:35:00
2:55 PM,64.4,35.6,34,29.62,10.0,WSW,10.4,-,N/A,,Clear,240,2012-12-16 20:55:00
3:15 PM,64.4,35.6,34,29.63,10.0,West,10.4,-,N/A,,Clear,270,2012-12-16 21:15:00
3:35 PM,62.6,33.8,34,29.63,10.0,West,11.5,-,N/A,,Clear,270,2012-12-16 21:35:00
3:55 PM,62.6,35.6,37,29.63,10.0,West,6.9,-,N/A,,Clear,280,2012-12-16 21:55:00
4:15 PM,62.6,33.8,34,29.63,10.0,WNW,5.8,-,N/A,,Clear,290,2012-12-16 22:15:00
4:35 PM,60.8,33.8,36,29.64,10.0,WNW,4.6,-,N/A,,Clear,290,2012-12-16 22:35:00
4:55 PM,59.0,33.8,39,29.65,10.0,NW,4.6,-,N/A,,Clear,310,2012-12-16 22:55:00
5:15 PM,57.2,33.8,41,29.65,10.0,NW,3.5,-,N/A,,Clear,320,2012-12-16 23:15:00
5:36 PM,55.4,33.8,44,29.66,10.0,NNW,3.5,-,N/A,,Clear,330,2012-12-16 23:36:00
5:55 PM,51.8,35.6,54,29.65,10.0,Calm,Calm,-,N/A,,Clear,0,2012-12-16 23:55:00
6:15 PM,53.6,33.8,47,29.65,10.0,NNE,3.5,-,N/A,,Clear,30,2012-12-17 00:15:00
6:36 PM,48.2,33.8,58,29.66,10.0,Calm,Calm,-,N/A,,Clear,0,2012-12-17 00:36:00
6:55 PM,46.4,33.8,62,29.66,10.0,Calm,Calm,-,N/A,,Clear,0,2012-12-17 00:55:00
7:15 PM,46.4,33.8,62,29.68,10.0,Calm,Calm,-,N/A,,Clear,0,2012-12-17 01:15:00
7:35 PM,46.4,35.6,66,29.69,10.0,NNW,3.5,-,N/A,,Clear,340,2012-12-17 01:35:00
7:55 PM,48.2,35.6,62,29.70,10.0,NNW,5.8,-,N/A,,Clear,330,2012-12-17 01:55:00
7:56 PM,48.2,35.6,62,29.70,10.0,NNW,5.8,-,N/A,,Clear,340,2012-12-17 01:56:00
8:15 PM,50.0,35.6,58,29.70,10.0,NNW,6.9,-,N/A,,Clear,340,2012-12-17 02:15:00
8:35 PM,48.2,35.6,62,29.69,10.0,North,6.9,-,N/A,,Clear,350,2012-12-17 02:35:00
9:15 PM,48.2,35.6,62,29.70,10.0,North,4.6,-,N/A,,Clear,360,2012-12-17 03:15:00
9:35 PM,48.2,35.6,62,29.71,10.0,NNW,3.5,-,N/A,,Clear,340,2012-12-17 03:35:00
10:15 PM,46.4,35.6,66,29.71,10.0,Calm,Calm,-,N/A,,Clear,0,2012-12-17 04:15:00
10:35 PM,42.8,33.8,70,29.71,10.0,Calm,Calm,-,N/A,,Clear,0,2012-12-17 04:35:00
10:55 PM,44.6,33.8,66,29.70,10.0,Calm,Calm,-,N/A,,Clear,0,2012-12-17 04:55:00
11:16 PM,44.6,35.6,71,29.71,10.0,Calm,Calm,-,N/A,,Clear,0,2012-12-17 05:16:00
11:35 PM,42.8,35.6,76,29.72,10.0,Calm,Calm,-,N/A,,Clear,0,2012-12-17 05:35:00
11:55 PM,44.6,35.6,71,29.72,10.0,NW,3.5,-,N/A,,Clear,320,2012-12-17 05:55:00